This is the latest recevied weather packets stored in our database for station/object KD7MPG-3. If no packets are shown the sender has not sent any weather packets the latest 10 day(s).
| Time | Temp. | Humidity | Pressure | Rain* | Wind** | Luminosity | Snow |
|---|---|---|---|---|---|---|---|
| 1777061249 | 18.89° C | 41% | 1024.1 hPa | 0 mm | - | - | - |
| 1777060950 | 18.89° C | 39% | 1024 hPa | 0 mm | - | - | - |
| 1777060645 | 18.89° C | 41% | 1024.2 hPa | 0 mm | - | - | - |
| 1777060345 | 18.89° C | 44% | 1024.3 hPa | 0 mm | - | - | - |
| 1777060043 | 18.89° C | 44% | 1024.2 hPa | 0 mm | - | - | - |
| 1777059743 | 18.89° C | 46% | 1024.4 hPa | 0 mm | - | - | - |
| 1777059442 | 18.89° C | 46% | 1024.4 hPa | 0 mm | - | - | - |
| 1777059144 | 18.33° C | 46% | 1024.5 hPa | 0 mm | - | - | - |
| 1777058841 | 18.33° C | 49% | 1024.6 hPa | 0 mm | - | - | - |
| 1777058541 | 18.33° C | 45% | 1024.6 hPa | 0 mm | - | - | - |
| 1777058242 | 18.33° C | 48% | 1024.9 hPa | 0 mm | - | - | - |
| 1777057941 | 18.33° C | 50% | 1024.9 hPa | 0 mm | - | - | - |
| 1777057643 | 17.78° C | 51% | 1025 hPa | 0 mm | - | - | - |
| 1777057341 | 17.78° C | 52% | 1025.1 hPa | 0 mm | - | - | - |
| 1777057042 | 17.78° C | 52% | 1025.2 hPa | 0 mm | - | - | - |
| 1777056738 | 17.78° C | 55% | 1025.6 hPa | 0 mm | - | - | - |
| 1777056437 | 17.22° C | 55% | 1025.6 hPa | 0 mm | - | - | - |
| 1777056135 | 17.22° C | 54% | 1025.7 hPa | 0 mm | - | - | - |
| 1777055835 | 17.22° C | 59% | 1025.7 hPa | 0 mm | - | - | - |
| 1777055535 | 17.22° C | 57% | 1025.7 hPa | 0 mm | - | - | - |
| 1777055236 | 16.67° C | 63% | 1025.8 hPa | 0 mm | - | - | - |
| 1777054933 | 16.67° C | 63% | 1025.9 hPa | 0 mm | - | - | - |
| 1777054631 | 16.11° C | 64% | 1026 hPa | 0 mm | - | - | - |
| 1777054333 | 15.56° C | 66% | 1026 hPa | 0 mm | - | - | - |
| 1777054031 | 15.56° C | 67% | 1025.9 hPa | 0 mm | - | - | - |
* Rain latest hour (hover to see other rain measurements)
** Current wind speed in m/s (hover to see current wind gust speed)